Regional Weather Roundup
Issued by NWS Memphis, TN

Home | Current Version | Previous Version | Text Only | Print | Product List | Glossary On
Versions: 1 2 3 4 5 6 7 8 9 10 11 12 13 14 15 16 17 18 19 20 21 22 23 24 25 26 27 28 29 30 31 32 33 34 35 36 37 38 39 40 41 42 43 44 45 46 47 48 49 50
000
ASUS44 KMEG 280810
RWRMEG
MEMPHIS CWA HOURLY WEATHER ROUNDUP
NATIONAL WEATHER SERVICE MEMPHIS TN
300 AM CDT FRI APR 28 2017

...WEST TENNESSEE...

CITY           SKY/WX    TMP DP  RH WIND       PRES   REMARKS
MEMPHIS INTL   CLOUDY    58  53  84 E7        29.79F
NWS MEMPHIS      N/A     55 N/A N/A MISG        N/A
JACKSON        CLEAR     54  52  93 CALM      29.85S
SOMERVILLE     CLEAR     54  52  94 CALM      29.81F
BOLIVAR        CLEAR     54  52  94 CALM      29.83F
LEXINGTON      CLEAR     54  52  94 CALM      29.87R
SAVANNAH       CLEAR     54  52  94 CALM      29.85S
DYERSBURG      PTCLDY    52  51  97 CALM      29.85S
UNION CITY     CLEAR     54  52  94 CALM      29.85S
PARIS          CLEAR     52  52 100 E3        29.87R
HUNTINGDON     CLEAR     54  52  94 CALM      29.86R


...EASTERN ARKANSAS...

CITY           SKY/WX    TMP DP  RH WIND       PRES   REMARKS
JONESBORO      PTCLDY    53  51  93 NE3       29.81F
WEST MEMPHIS   CLOUDY    58  54  86 SE7       29.78F
BATESVILLE     CLOUDY    52  50  93 N3        29.82F
WALNUT RIDGE   CLOUDY    57  52  82 E7        29.82S
BLYTHEVILLE    PTCLDY    54  52  93 SE5       29.85R
SEARCY         CLOUDY    55  55 100 N3        29.81F
STUTTGART      MOCLDY    57  46  67 NE7       29.77S
PINE BLUFF     CLOUDY    59  57  93 E3        29.74F
MONTICELLO     PTCLDY    58  55  90 SE3       29.74F


...NORTH MISSISSIPPI...

CITY           SKY/WX    TMP DP  RH WIND       PRES   REMARKS
TUPELO         CLEAR     56  53  90 CALM      29.83F
OXFORD         CLEAR     55  52  88 SE7       29.82F
BATESVILLE     CLEAR     55  54  94 CALM      29.80F
TUNICA         CLEAR     54  52  94 E3        29.79F
CLARKSDALE     PTCLDY    57  57 100 SE7       29.77F
CORINTH        CLEAR     54  52  94 CALM      29.85R
GREENWOOD      CLEAR     60  56  86 MISG      29.78F
COLUMBUS       CLEAR     54  53  99 CALM      29.83F
STARKVILLE     CLEAR     52  52 100 SE3       29.84F
GOLDEN TRIANGL CLEAR     59  52  77 E3        29.80F


...SOUTHEAST MISSOURI...

CITY           SKY/WX    TMP DP  RH WIND       PRES   REMARKS
KENNETT        PTCLDY    57  54  88 SE5       29.83S
MALDEN         PTCLDY    57  54  88 E5        29.84F
WEST PLAINS    CLOUDY    53  51  93 CALM      29.84S
POPLAR BLUFF   PTCLDY    57  54  89 CALM      29.83F
CAPE GIRARDEAU CLOUDY    54  49  83 E5        29.84F


...NORTHWEST ALABAMA...

CITY           SKY/WX    TMP DP  RH WIND       PRES   REMARKS
MUSCLE SHOALS  CLEAR     57  54  89 CALM      29.88S


...MIDDLE TENNESSEE...

CITY           SKY/WX    TMP DP  RH WIND       PRES   REMARKS
NASHVILLE      PTCLDY    53  51  93 CALM      29.90F
CLARKSVILLE    CLOUDY    53  50  89 SE3       29.89R
COLUMBIA       CLEAR    N/A N/A N/A CALM      29.87F


...WESTERN KENTUCKY...

CITY           SKY/WX    TMP DP  RH WIND       PRES   REMARKS
PADUCAH        PTCLDY    54  51  90 SE3       29.86S
FORT CAMPBELL  CLOUDY    54  51  89 E7        29.88R


...CENTRAL ARKANSAS...

CITY           SKY/WX    TMP DP  RH WIND       PRES   REMARKS
LITTLE ROCK    CLOUDY    56  56 100 NE6       29.76F


SKY/WX REPORTED AS FAIR MEANS FEW OR NO CLOUDS BELOW
12 THOUSAND FEET.





USA.gov is the U.S. government's official web portal to all federal, state and local government web resources and services.